Location: Contre
(49.7477°N, 2.0963°E)
Time: 08:03:03
(UTC+00:00)

DMSP B5D2-2 - Visible Passes

Search period start: 21 May 2024 00:00
Search period end: 31 May 2024 00:00
Orbit: 788 x 802 km, 98.3° (Epoch: 20 May)

Date Brightness Start Highest point End Pass type
(mag) Time Alt. Az. Time Alt. Az. Time Alt. Az.
21 May 5.6 02:46:50 10° SE 02:51:40 40° ENE 02:56:34 10° N visible
22 May 6.4 02:19:42 10° ESE 02:23:56 26° ENE 02:28:12 10° N visible
23 May 6.9 01:53:04 10° E 01:56:18 17° NE 01:59:32 10° NNE visible
24 May 7.3 01:27:38 10° ENE 01:28:46 11° NE 01:29:54 10° NE visible
24 May 5.0 03:02:11 10° SE 03:07:15 53° ENE 03:12:23 10° N visible
25 May 6.0 02:34:49 10° SE 02:39:27 33° ENE 02:44:07 10° N visible
26 May 6.7 02:07:52 10° ESE 02:11:45 21° ENE 02:15:38 10° N visible
27 May 7.0 01:41:33 10° E 01:44:09 14° NE 01:46:45 10° NNE visible
28 May 5.5 02:50:04 10° SE 02:54:59 43° ENE 02:59:57 10° N visible
29 May 6.3 02:22:51 10° ESE 02:27:12 27° ENE 02:31:36 10° N visible
30 May 6.9 01:56:07 10° E 01:59:32 18° NE 02:02:59 10° NNE visible
